Welcome to the New NWS' Forecast!
Most changes are behind the scenes, but click here for differences you might notice.
Latest weather observations around

Troy, Troy Municipal Airport (KTOI)

Using English Units (Switch to International System of Units)
Date/ Time (CDT) Wind (mph) Vis. (mi) Weather Sky Cond. Temp (°F) Rel. Humidity Wind Chill (°F) Heat Index (°F) Pressure Precip. (in)
Air Dwpt 6 hour Altimeter (inHg) Sea level (inHg) 1 hr 3 hr 6 hr
Max Min
Jul 18 21:53 S 3 10 Clear CLR 76 74     94%   78 29.95 29.93      
Jul 18 20:53 Calm 10 Clear CLR 77 75     94%   79 29.94 29.92      
Jul 18 19:53 WNW 6 10 Clear CLR 79 75     88%   83 29.93 29.91      
Jul 18 18:53 Calm 10 Clear CLR 80 76     87%   85 29.92 29.91      
Jul 18 17:53 NNW 3 10 Clear CLR 82 73     74%   87 29.91 29.89      
Jul 18 17:16 NNW 8 10 Mostly Cloudy SCT034 SCT060 BKN090 81 74     79%   86 29.92        
Jul 18 16:53 ENE 6 10 Mostly Clear FEW040 81 73     77%   86 29.92 29.9      
Jul 18 16:38 ENE 9 10 Partly Cloudy FEW040 SCT050 82 73     74%   87 29.92        
Jul 18 16:02 S 3 10 Mostly Clear FEW065 86 76     72%   96 29.91        
Jul 18 15:53 Calm 10 Mostly Clear FEW065 87 74     65%   95 29.91 29.9      
Jul 18 15:41 Calm 10 Mostly Clear FEW002 87 74     65%   95 29.92        
Jul 18 14:53 SW 5 10 Mostly Clear FEW055 87 74     65%   95 29.94 29.92      
Jul 18 13:53 S 5 10 Cloudy SCT024 BKN036 OVC060 85 75     72%   93 29.96 29.94      
Jul 18 12:53 5 10 Partly Cloudy SCT020 87 75     68%   97 29.98 29.96      
Jul 18 12:27 Calm 10 Partly Cloudy SCT017 84 75     74%   92 29.99        
Jul 18 11:53 Calm 10 Cloudy OVC016 83 74     74%   89 30 29.98      
Jul 18 11:14 S 5 10 Mostly Cloudy BKN011 81 74     79%   86 30.01        
Jul 18 10:53 Calm 10 Mostly Cloudy BKN008 81 74     79%   86 30.01 29.99      
Jul 18 10:44 WNW 3 10 Cloudy OVC008 79 74     85%   83 30.01        
Jul 18 10:34 SW 3 10 Cloudy OVC007 78 74     87%   80 30.02        
Jul 18 10:11 W 5 10 Cloudy OVC006 76 73     91%   77 30.02        
Jul 18 09:53 Calm 10 Cloudy OVC005 75 73     94%   77 30.02 30      
Jul 18 09:32 WNW 3 9 Cloudy OVC005 75 73     94%   77 30.02        
Jul 18 09:13 NW 3 9 Cloudy OVC004 75 73     94%   77 30.02        
Jul 18 08:53 NW 6 4 Fog/Mist OVC003 74 73     97%   76 30.02 30      
Jul 18 08:36 NW 3 3 Fog/Mist OVC003 74 73     97%   76 30.02        
Jul 18 08:15 WNW 3 2 Fog/Mist OVC002 74 73     97%   76 30.02        
Jul 18 08:11 WNW 5 1.5 Fog/Mist OVC002 74 73     97%   76 30.02        
Jul 18 08:05 WNW 5 1 Fog/Mist OVC002 74 73     97%   76 30.02        
Jul 18 07:53 3 0.5 Fog OVC002 74 73     97%   76 30.02 30      
Jul 18 06:53 WSW 3 0.25 Clear   73 72     96%   75 30 29.98      
Jul 18 05:53 WSW 5 0.5 Fog VV002 73 72     96%   75 30 29.98      
Jul 18 05:26 SW 3 0.5 Fog OVC002 74 72     94%   75 29.99        
Jul 18 04:53 W 3 0.75 Fog/Mist OVC002 74 72     94%   75 29.99 29.97      
Jul 18 04:31 WSW 3 0.5 Fog OVC002 73 72     96%   75 29.98        
Jul 18 04:09 W 5 0.75 Fog/Mist OVC002 74 72     94%   75 29.98        
Jul 18 03:53 WSW 5 0.5 Fog VV002 74 72     94%   75 29.98 29.96      
Jul 18 03:27 SW 5 0.5 Fog OVC002 74 72     94%   75 29.98        
Jul 18 03:20 SW 5 0.75 Fog/Mist OVC002 74 72     94%   75 29.98        
Jul 18 03:09 SW 5 1 Fog/Mist OVC002 74 72     94%   75 29.98        
Jul 18 03:04 SSW 5 1.5 Fog/Mist OVC003 74 72     94%   75 29.98        
Jul 18 03:00 SSW 3 2.5 Fog/Mist OVC003 74 72     94%   75 29.98        
Jul 18 02:53 Calm 4 Fog/Mist OVC004 73 72     96%   75 29.98 29.96      
Jul 18 02:13 Calm 5 Fog/Mist BKN004 73 72     96%   75 29.99        
Jul 18 01:53 Calm 7 Mostly Clear FEW006 74 72     94%   75 29.99 29.97      
Jul 18 00:53 WSW 3 9 Clear CLR 74 72     94%   75 30 29.98     0
Jul 17 23:53 Calm 7 Clear CLR 74 72     94%   75 30 29.98      
Jul 17 22:53 Calm 9 Clear CLR 74 72     94%   75 30 29.98 0    
Jul 17 21:53 Calm 9 Clear CLR 74 72     94%   75 30.02 30 0 0  
Jul 17 21:08 W 5 10 Light Rain SCT036 SCT055 SCT100 74 71     91%   75 30   0    
Jul 17 20:57 Calm 9 Light Rain SCT043 BKN050 OVC100 74 72     94%   75 30.01   0    
Jul 17 20:48 SSE 7 3 Thunderstorms and Rain and Fog/Mist FEW037 BKN045 OVC080 74 72     94%   75 30.01 30 0    
Jul 17 20:47 SSE 7 3 Thunderstorms and Rain and Fog/Mist FEW037 BKN045 OVC080 73 72     94%   75 30.01   0    
Jul 17 20:40 SE 11 1.75 Thunderstorms and Heavy Rain and Fog/Mist BKN043 BKN055 OVC070 74 71     91%   75 30.02   0    
Jul 17 20:24 S 8 5 Thunderstorms and Rain and Fog/Mist SCT017 BKN042 OVC060 74 71     91%   75 30.03   0    
Jul 17 20:15 SSW 10 2 Thunderstorms and Rain and Fog/Mist SCT016 BKN027 OVC039 75 72     90%   76 30.03   0    
Jul 17 20:13 S 8 1.25 Thunderstorms and Heavy Rain and Fog/Mist FEW013 BKN027 OVC044 75 72     90%   76 30.02   0    
Jul 17 20:09 WSW 10 1 Thunderstorms and Heavy Rain and Fog/Mist SCT013 SCT022 OVC030 77 74     90%   79 30.02   0    
Jul 17 20:06 SW 8 1 Thunderstorms and Heavy Rain and Fog/Mist SCT013 BKN021 OVC029 77 75     94%   79 30.03   0    
Jul 17 20:03 WSW 8 1.75 Thunderstorms and Heavy Rain and Fog/Mist FEW011 BKN019 OVC029 78 75     90%   80 30.02   0    
Jul 17 20:00 6 4 Thunderstorms and Rain and Fog/Mist FEW016 SCT021 OVC029 77 75     94%   79 30.01   0    
Jul 17 19:53 SSE 7 10 Thunderstorms and Rain BKN031 BKN046 OVC120 78 74     87%   80 30 29.98 0    
Jul 17 19:17 N 8 10 Cloudy BKN035 BKN045 OVC055 80 73     79%   84 29.98        
Jul 17 19:05 N 10 10 Cloudy BKN034 BKN045 OVC055 81 73     77%   86 29.98        
Jul 17 18:53 NE 11 10 Thunderstorms BKN035 BKN050 82 73     74%   87 29.98 29.96      
Jul 17 18:38 NE 10 10 Thunderstorms SCT035 BKN110 87 73     63%   95 29.98        
Jul 17 18:25 WSW 5 10 Partly Cloudy SCT110 88 74     63%   97 29.97        
Jul 17 18:10 WSW 7 10 Thunderstorms FEW036 SCT060 BKN110 88 74     63%   97 29.97        
Jul 17 17:53 6 10 Mostly Cloudy FEW039 BKN100 88 73     61%   96 29.97 29.95      
Jul 17 17:46 W 5 10 Mostly Cloudy FEW038 BKN100 88 74     63%   97 29.97        
Jul 17 17:29 7 10 Mostly Clear FEW037 88 74     63%   97 29.97        
Jul 17 16:53 WSW 9 10 Clear CLR 89 72     57%   96 29.96 29.94      
Jul 17 15:53 SW 6 10 Mostly Clear FEW090 88 73     61%   96 29.97 29.95      
Jul 17 14:53 SW 7 10 Partly Cloudy FEW035 FEW055 SCT090 88 73     61%   96 29.99 29.97      
Jul 17 13:53 SW 5 10 Mostly Cloudy FEW034 BKN060 BKN075 87 73     63%   95 30.01 29.99      
Jul 17 12:53 SSW 6 10 Mostly Cloudy SCT033 BKN070 87 73     63%   95 30.03 30.01      
Jul 17 11:53 SSW 5 10 Mostly Clear FEW021 85 72     65%   91 30.05 30.03      
Jul 17 10:53 5 10 Mostly Cloudy FEW018 BKN055 83 73     72%   89 30.06 30.05      
Jul 17 10:10 Calm 10 Mostly Clear FEW010 80 72     76%   84 30.07        
Jul 17 09:53 Calm 10 Mostly Cloudy BKN009 79 73     82%   82 30.06 30.05      
Jul 17 09:18 Calm 10 Mostly Cloudy BKN008 76 72     88%   77 30.07        
Jul 17 08:53 Calm 10 Mostly Cloudy BKN007 75 72     90%   76 30.07 30.06      
Jul 17 08:26 Calm 9 Cloudy OVC006 75 71     88%   76 30.08        
Jul 17 08:04 S 3 8 Cloudy OVC005 74 72     94%   75 30.08        
Jul 17 07:53 WSW 3 7 Cloudy OVC004 74 71     91%   75 30.08 30.06      
Jul 17 07:30 SSW 6 5 Fog/Mist OVC004 73 71     94%   74 30.07        
Jul 17 06:53 SSW 6 4 Fog/Mist OVC003 73 71     94%   74 30.07 30.05      
Jul 17 05:53 SSW 3 5 Fog/Mist BKN003 71 70     96%   72 30.06 30.04      
Jul 17 05:51 SSW 3 6 Fog/Mist BKN003 72 70     94%   73 30.06        
Jul 17 05:38 SW 3 7 Partly Cloudy SCT003 72 70     93%   73 30.05        
Jul 17 04:53 SSW 3 5 Fog/Mist BKN002 72 71     97%   73 30.03 30.02      
Jul 17 04:45 SW 3 6 Fog/Mist BKN002 72 70     93%   73 30.03        
Jul 17 04:35 Calm 3 Clear   72 70     93%   73 30.03        
Jul 17 04:31 Calm 1.75 Clear   72 70     93%   73 30.03        
Jul 17 04:29 Calm 1.25 Clear   72 70     93%   73 30.03        
Jul 17 04:24 Calm 0.75 Clear   72 70     93%   73 30.03        
Jul 17 04:16 Calm 1 Clear   72 70     93%   73 30.03        
Jul 17 04:14 Calm 1.5 Clear   72 70     93%   73 30.03        
Jul 17 03:56 Calm 2.5 Clear   72 71     97%   73 30.03        
Jul 17 03:53 Calm 4 Clear   72 71     97%   73 30.03 30.01      
Jul 17 03:51 Calm 5 Clear   72 72     100%   73 30.03        
Jul 17 02:53 Calm 5 Fog/Mist CLR 72 70     93%   73 30.02 30      
Jul 17 02:42 Calm 7 Clear CLR 72 71     97%   73 30.02        
Jul 17 02:34 Calm 2.5 Fog/Mist CLR 72 70     93%   73 30.02        
Jul 17 01:53 Calm 5 Fog/Mist CLR 73 71     94%   74 30.03 30.01      
Jul 17 00:53 WSW 3 10 Clear CLR 74 72     94%   75 30.05 30.03     0
Jul 16 23:53 SSW 3 9 Clear CLR 74 72     94%   75 30.04 30.02      
Jul 16 22:53 Calm 8 Mostly Clear FEW110 74 73     97%   76 30.05 30.03      
Jul 16 21:53 SW 3 10 Clear CLR 74 72     94%   75 30.05 30.03   0  
Jul 16 20:53 SW 3 10 Clear CLR 74 71     91%   75 30.02 30 0    
Jul 16 20:20 3 8 Light Rain SCT070 SCT085 74 71     91%   75 30.02   0    
Jul 16 19:53 W 11 7 Thunderstorms and Rain FEW015 BKN041 OVC060 75 72     90%   76 30.04 30.02 0    
Jul 16 19:49 W 10 6 Thunderstorms and Rain and Fog/Mist FEW016 BKN032 OVC050 75 72     89%   77 30.04   0    
Jul 16 19:42   3 Thunderstorms and Rain and Fog/Mist FEW016 BKN030 OVC048 76 74     94%   78 30.04   0    
Jul 16 18:53 NNW 3 10 Mostly Clear FEW100 84 77     80%   94 29.99 29.98     0
Jul 16 18:28 NW 5 10 Mostly Clear FEW100 85 75     72%   93 30        
Jul 16 17:53 Calm 10 Clear CLR 87 74     65%   95 29.99 29.97      
Jul 16 16:53 SE 6 10 Clear CLR 85 75     72%   93 30 29.98 0    
Notice The following observation data may not be complete
Jul 16 16:18 E 6 3 Light Rain FEW030 SCT038 BKN070   76      %     30   0    
Notice The following observation data may not be complete
Jul 16 16:16 E 6 1.75 Light Rain and Fog/Mist SCT036 SCT060 BKN070   76      %     30   0    
Notice The following observation data may not be complete
Jul 16 16:09 SE 11 1.25 Heavy Rain and Fog/Mist SCT034 BKN045 OVC090   76      %     30   0    
Notice The following observation data may not be complete
Jul 16 16:07 SE 10 1.75 Heavy Rain FEW025 BKN037 OVC080   76      %     30   0    
Jul 16 15:53 ESE 6 10 Cloudy BKN033 OVC055 83 76     79%   91 29.99 29.98      
Jul 16 14:53 Calm 10 Cloudy BKN036 OVC050 89 72     57%   96 30.02 30      
Jul 16 12:53 NNW 5 10 Partly Cloudy SCT028 87 72     61%   94 30.07 30.05      
Jul 16 11:53 NW 8 10 Partly Cloudy SCT022 84 73     70%   90 30.08 30.06      
Jul 16 10:53 WSW 5 10 Clear CLR 81 72     74%   85 30.08 30.07      
Jul 16 09:53 S 3 10 Clear   79 71     77%   82 30.09 30.07      
Jul 16 08:53 Calm 10 Clear CLR 76 72     88%   77 30.09 30.07      
Jul 16 08:39 Calm 9 Mostly Clear FEW004 75 72     90%   76 30.09        
Jul 16 08:00 Calm 4 Fog/Mist BKN003 73 71     94%   74 30.08        
Jul 16 07:53 Calm 4 Fog/Mist OVC002 73 71     94%   74 30.08 30.07      
Jul 16 07:43 SSW 3 6 Fog/Mist BKN002 73 72     96%   75 30.08        
Jul 16 07:32 Calm 2 Fog/Mist OVC002 73 71     94%   74 30.07        
Jul 16 07:29 Calm 1.5 Fog/Mist OVC002 72 71     97%   73 30.07        
Jul 16 07:24 Calm 1 Fog/Mist OVC002 72 71     97%   73 30.07        
Jul 16 07:10 Calm 0.25 Fog OVC002 72 71     97%   73 30.06        
Jul 16 07:03 Calm 0.75 Fog/Mist OVC002 72 70     93%   73 30.06        
Jul 16 07:01 Calm 1.25 Fog/Mist OVC002 72 70     93%   73 30.06        
Jul 16 06:56 Calm 2 Fog/Mist OVC002 71 70     96%   72 30.06        
Jul 16 06:53 Calm 1.5 Fog/Mist OVC002 71 70     96%   72 30.06 30.04      
Jul 16 06:51 Calm 1 Fog/Mist OVC002 72 70     94%   73 30.06        
Jul 16 05:55 Calm 0.5 Fog BKN002 71 70     96%   72 30.06        
Jul 16 05:53 Calm 1 Fog/Mist BKN002 71 70     96%   72 30.06 30.04      
Jul 16 05:35 Calm 10 Partly Cloudy SCT003 71 69     93%   72 30.05        
Jul 16 05:24 Calm 10 Mostly Cloudy BKN003 71 69     93%   72 30.06        
Jul 16 04:53 Calm 5 Fog/Mist BKN002 71 69     93%   72 30.06 30.04      
Jul 16 04:27 Calm 10 Mostly Clear FEW006 72 70     93%   73 30.05        
Jul 16 04:04 S 5 10 Cloudy OVC006 72 70     93%   73 30.05        
Jul 16 03:53 SE 3 10 Cloudy OVC005 72 70     93%   73 30.05 30.03      
Jul 16 02:53 Calm 10 Cloudy OVC005 72 70     93%   73 30.04 30.03      
Jul 16 02:51 Calm 10 Cloudy OVC005 72 70     94%   73 30.04        
Jul 16 02:37 Calm 10 Mostly Cloudy BKN006 72 70     93%   73 30.04        
Jul 16 02:16 N 3 10 Partly Cloudy SCT004 73 70     90%   74 30.04        
Jul 16 02:00 Calm 10 Mostly Cloudy BKN004 73 70     90%   74 30.04        
Jul 16 01:53 Calm 10 Partly Cloudy SCT005 72 70     93%   73 30.04 30.02      
Jul 16 00:53 WSW 3 10 Clear CLR 73 70     90%   74 30.03 30.01      
Jul 15 23:53 Calm 10 Clear CLR 73 70     90%   74 30.02 30.01      
Jul 15 22:53 ENE 5 10 Clear CLR 75 69     82%   76 30.04 30.02      
May 15 10:53 NE 8 10 Mostly Cloudy SCT030 SCT045 BKN075 81 66     61%   83 29.99 29.98      
May 15 08:53 E 6 10 Clear CLR 76 67     74%   77 29.98 29.96      
May 15 07:53 E 7 10 Partly Cloudy SCT120 72 67     84%   73 29.98 29.96      
May 14 23:53 Calm 9 Clear CLR 65 64     97%     29.97 29.95      
May 13 06:53 Calm 6 Fog/Mist CLR 63 62     97%     30.11 30.1      
Jun 12 06:39 3 10 Mostly Clear FEW002 71 71     100%   73 30.15        
Jun 12 05:53 Calm 10 Mostly Clear FEW011 70 70     100%     30.14 30.12      
Jun 11 21:53 SSW 3 9 Cloudy OVC100 74 70     87%   75 30.15 30.13 0 0  
Jun 11 20:00 Calm 10 Cloudy OVC070 75 74     96%   77 30.11        
Notice The following observation data may not be complete
Jun 11 07:13   10 Partly Cloudy SCT016          %              
Jun 10 12:53 ESE 9 10 Mostly Cloudy FEW050 BKN075 87 64     46%   88 30.08 30.06      
Jun 10 04:53 Calm 10 Clear CLR 63 63     100%     30.01 30      
Jun 09 15:53   10 Clear CLR 86 60     42%   86 29.93 29.92      
Jun 08 12:53 6 10 Mostly Clear FEW040 81 62     53%   82 29.91 29.89      
Jun 08 09:53 5 10 Clear CLR 73 62     68%   73 29.91 29.9      
Jun 08 07:53 NE 8 10 Clear CLR 68 63     84%     29.9 29.89      
Jun 08 00:53 Calm 10 Clear CLR 68 67     96%     29.84 29.82      
Jun 07 10:53 NE 10 10 Mostly Cloudy BKN019 BKN024 BKN032 79 70     74%   82 29.76 29.74      
Notice The following observation data may not be complete
Jun 06 03:28   8 Partly Cloudy FEW002 SCT015          %              
Jun 05 22:53 Calm 10 Cloudy SCT024 BKN050 OVC095 72 72     100%   74 29.84 29.83      
Jun 05 16:53 S 8 10 Mostly Clear FEW032 81 71     72%   85 29.8 29.78      
Jun 05 15:53 SSE 8 10 Mostly Clear FEW018 79 73     82%   82 29.8 29.78   0  
Jun 05 14:32 S 5 10 Mostly Clear FEW007 75 73     94%   77 29.84   0